[[{"header":{"parameterUnit":"m.s-1","parameterCategory":1,"la1":30.2991,"la2":30.254,"lo1":-89.0895,"lo2":-89.0444,"dy":0.0017,"dx":0.0017,"nx":28,"ny":28,"refTime":"2024-07-22T03:00:00:Z","depth":0,"parameterNumber":2,"parameterNumberName":"U-component_of_WINDS"},"data":[0,0,0,0,0,0,0,0,0,0,0,0,0,0,0,0,0,0,0,0,0,0,0,0,0,0,0,0,0,0,0,0,0,0,0,0,0,0,0,0,0,0,0,0,0,0,0,0,0,0,0,0,0,0,0,0,0,0,3.3038,3.3038,0,3.3027,3.3027,3.3027,3.2956,3.2954,3.2952,3.2951,3.2939,3.294,3.2941,0,0,0,0,0,0,0,0,0,0,0,0,0,3.2994,3.2995,3.3038,3.3038,3.3038,3.3027,3.3027,3.3027,3.2956,3.2954,3.2952,3.295,3.2938,3.294,3.2941,0,0,0,0,0,0,0,0,0,0,0,0,0,3.3001,3.2996,3.3038,3.3001,3.2998,3.3027,3.3027,3.3027,3.2957,3.2954,3.2951,3.2949,3.2938,3.294,3.2942,3.3005,0,0,3.2947,3.2948,0,0,0,0,0,0,0,0,3.3001,3.3003,3.3007,3.3004,3.3,3.299,3.3007,3.302,3.2957,3.2972,3.2951,3.2948,3.2958,3.2958,3.2962,3.3005,3.3004,3.2948,3.2949,3.295,3.295,0,0,0,0,0,0,0,3.3001,3.3003,3.3034,3.3007,3.3003,3.2984,3.2982,3.3009,3.298,3.2971,3.2966,3.2965,3.2956,3.296,3.2961,3.3004,3.2948,3.2949,3.295,3.2951,3.3094,3.3097,0,0,0,0,0,0,3.3006,3.3003,3.3034,3.3033,3.2994,3.2987,3.2985,3.2996,3.2979,3.2974,3.2968,3.2962,3.2958,3.2959,3.296,3.303,3.295,3.2951,3.2953,3.3092,3.3095,3.3098,0,0,0,0,0,0,3.3005,3.3009,3.3034,3.3017,3.3019,3.2991,3.3003,3.2997,3.3001,3.2977,3.2971,3.2978,3.2956,3.2957,3.2994,3.3029,3.2952,3.2954,3.3089,3.3093,3.3096,3.3174,0,0,0,0,0,0,3.3004,3.3009,3.3034,3.3018,3.302,3.3069,3.3006,3.2999,3.3005,3.2998,3.2985,3.298,3.2954,3.2991,3.2996,3.303,3.2956,3.3085,3.309,3.3095,3.3168,3.318,3.319,0,0,0,0,0,3.3003,3.3057,3.3036,3.304,3.305,3.3072,3.3072,3.3042,3.3008,3.3032,3.3016,3.298,3.3025,3.2996,3.3,3.3036,3.3083,3.3089,3.3095,3.3163,3.3177,3.319,0,0,0,0,0,0,3.3078,3.3054,3.303,3.3081,3.3079,3.306,3.3089,3.3059,3.3066,3.3059,3.302,3.3018,3.3059,3.3051,3.3019,3.3094,3.3048,3.3055,3.3098,3.3112,3.3123,3.3122,3.2957,0,0,0,0,0,3.3101,3.3121,3.3098,3.3145,3.3145,3.3117,3.3126,3.3102,3.3098,3.3096,3.3083,3.308,3.3092,3.3102,3.3113,3.3167,3.3161,3.3193,3.3205,3.3214,3.322,3.3244,3.3257,3.3117,3.3117,3.3117,0,0,3.3148,3.3137,3.3152,3.316,3.3155,3.3175,3.3117,3.3142,3.3155,3.31,3.3132,3.3123,3.3116,3.3161,3.318,3.3156,3.3257,3.3222,3.3229,3.323,3.3252,3.3265,3.3277,3.3121,3.3121,3.312,0,0,3.3242,3.3238,3.3274,3.327,3.3264,3.3245,3.3254,3.3238,3.3229,3.3262,3.3219,3.3235,3.3259,3.3255,3.3257,3.3348,3.3314,3.3352,3.341,3.3434,3.3445,3.3455,3.3484,3.3495,3.3359,3.3359,3.3359,0,3.3301,3.333,3.3297,3.3323,3.3327,3.3277,3.3313,3.3311,3.3308,3.3311,3.3285,3.3311,3.3304,3.3345,3.3367,3.3371,3.3378,3.3353,3.3446,3.3456,3.3464,3.3491,3.3503,3.3363,3.3363,3.3362,3.3362,0,3.3401,3.3422,3.3452,3.345,3.3457,3.3488,3.3458,3.3469,3.3445,3.3428,3.3459,3.3449,3.3455,3.3463,3.344,3.3501,3.3485,3.3453,3.3405,3.3482,3.3507,3.3518,3.337,3.3368,3.3367,3.3366,0,0,3.3543,3.3521,3.3532,3.3529,3.3517,3.3532,3.356,3.3566,3.3574,3.3574,3.3595,3.3615,3.3584,3.3586,3.3562,3.3584,3.3652,3.3548,3.3547,3.3565,3.3714,3.3737,3.375,3.3631,3.3633,3.3634,3.3714,0,3.3632,3.3678,3.3648,3.3698,3.3715,3.3667,3.3691,3.3685,3.367,3.3681,3.3664,3.3678,3.3638,3.3638,3.3658,3.364,3.3681,3.3634,3.3647,3.3648,3.3648,3.3763,3.3787,3.3863,3.3724,3.3725,3.3727,0,3.3741,3.3744,3.3796,3.3778,3.3784,3.3806,3.3807,3.3819,3.3811,3.3798,3.3799,3.3768,3.3792,3.3746,3.3777,3.3746,3.3749,3.3741,3.3743,3.3742,3.369,3.3762,3.3887,3.3897,3.3742,3.3741,3.374,0,3.3836,3.3854,3.3886,3.3885,3.3866,3.3881,3.3874,3.3864,3.3868,3.3869,3.3871,3.3875,3.3877,3.388,3.3851,3.382,3.3884,3.3837,3.3872,3.3873,3.3886,3.3885,3.4011,3.3893,3.3893,3.3893,3.3893,0,3.3937,3.397,3.3927,3.3947,3.3982,3.3946,3.3981,3.3968,3.3959,3.3974,3.3934,3.3949,3.391,3.392,3.3898,3.3925,3.3927,3.3915,3.3909,3.3918,3.3919,3.3918,3.3911,3.3896,3.3895,3.3895,3.3894,0,3.4048,3.4021,3.4053,3.4031,3.4026,3.4052,3.4033,3.4049,3.4031,3.405,3.4053,3.4024,3.4034,3.4005,3.4011,3.3995,3.4034,3.402,3.4036,3.4031,3.4067,3.4063,3.4195,3.4209,3.4085,3.4086,3.4087,0,3.4113,3.4136,3.4117,3.4124,3.4118,3.4131,3.4134,3.41,3.4105,3.4096,3.4113,3.4119,3.4122,3.414,3.4119,3.4122,3.4106,3.4152,3.4106,3.4114,3.4103,3.4101,3.4102,3.4161,3.4162,3.4163,3.4165,0,3.4229,3.4214,3.4221,3.4223,3.4228,3.4228,3.4225,3.4233,3.4196,3.4204,3.4213,3.4215,3.422,3.4226,3.4224,3.4215,3.4183,3.4179,3.4187,3.4195,3.4203,3.4196,3.4059,3.4176,3.4175,3.4174,3.4173,3.4173,3.4317,3.4335,3.4323,3.4331,3.4325,3.4322,3.4335,3.4318,3.4325,3.4326,3.4305,3.4318,3.4306,3.4301,3.4295,3.4303,3.4282,3.4294,3.4297,3.43,3.4304,3.4203,3.4303,3.4303,3.4303,3.4302,3.4302,0,3.4429,3.4418,3.4426,3.4423,3.4428,3.4398,3.4392,3.4399,3.4411,3.4403,3.4406,3.4415,3.442,3.4399,3.44,3.4411,3.4396,3.4412,3.441,3.4407,3.4325,3.4316,3.4424,3.4424,3.4424,3.4424,3.4424,3.4424,3.4488,3.4515,3.4498,3.4521,3.451,3.4521,3.452,3.4517,3.451,3.4522,3.4526,3.4511,3.4497,3.4497,3.4499,3.4493,3.4494,3.4515,3.4503,3.4426,3.4414,3.4402,3.4394,3.4516,3.4516,3.4584,3.4585,3.4586]},{"header":{"parameterUnit":"m.s-1","parameterCategory":1,"la1":30.2991,"la2":30.254,"lo1":-89.0895,"lo2":-89.0444,"dy":0.0017,"dx":0.0017,"nx":28,"ny":28,"refTime":"2024-07-22T03:00:00:Z","depth":0,"parameterNumber":3,"parameterNumberName":"V-component_of_WINDS"},"data":[0,0,0,0,0,0,0,0,0,0,0,0,0,0,0,0,0,0,0,0,0,0,0,0,0,0,0,0,0,0,0,0,0,0,0,0,0,0,0,0,0,0,0,0,0,0,0,0,0,0,0,0,0,0,0,0,0,0,0.6739,0.6741,0,0.7006,0.701,0.7013,0.7096,0.7094,0.7093,0.7092,0.7366,0.7375,0.7383,0,0,0,0,0,0,0,0,0,0,0,0,0,0.6299,0.6306,0.6738,0.6742,0.6745,0.7006,0.701,0.7013,0.7096,0.7094,0.7093,0.7091,0.7363,0.7373,0.7384,0,0,0,0,0,0,0,0,0,0,0,0,0,0.652,0.6309,0.6738,0.6818,0.6827,0.7005,0.701,0.7014,0.7096,0.7094,0.7092,0.709,0.736,0.7373,0.7385,0.7503,0,0,0.7424,0.743,0,0,0,0,0,0,0,0,0.6508,0.6537,0.6803,0.6812,0.6824,0.7016,0.6956,0.7178,0.7097,0.6994,0.7092,0.7089,0.7251,0.7273,0.7327,0.7516,0.7527,0.7425,0.7433,0.7439,0.7442,0,0,0,0,0,0,0,0.6492,0.6525,0.6844,0.6806,0.6819,0.684,0.687,0.6998,0.713,0.7003,0.701,0.704,0.7257,0.7315,0.7334,0.7531,0.7425,0.7436,0.7444,0.7449,0.7832,0.7834,0,0,0,0,0,0,0.6463,0.6512,0.6836,0.6852,0.6658,0.685,0.6883,0.6956,0.7129,0.7154,0.7042,0.7043,0.7294,0.7319,0.7344,0.7495,0.7438,0.745,0.7458,0.7829,0.7832,0.7835,0,0,0,0,0,0,0.6454,0.6491,0.6825,0.6684,0.6728,0.686,0.6941,0.6962,0.7021,0.7158,0.7182,0.7077,0.7293,0.7326,0.7463,0.7506,0.7456,0.7468,0.7826,0.783,0.7834,0.7796,0,0,0,0,0,0,0.6441,0.6487,0.6533,0.6685,0.6736,0.6939,0.6944,0.6969,0.7042,0.7047,0.7198,0.7221,0.7294,0.7444,0.7476,0.7522,0.7478,0.7823,0.7828,0.7832,0.7794,0.7798,0.7802,0,0,0,0,0,0.6425,0.6512,0.6535,0.6574,0.6796,0.6941,0.6971,0.7054,0.7045,0.7093,0.7182,0.7216,0.7495,0.7457,0.7494,0.7545,0.7821,0.7827,0.7832,0.7793,0.7798,0.7802,0,0,0,0,0,0,0.6361,0.6533,0.6561,0.6699,0.6805,0.6955,0.7018,0.7056,0.7166,0.7166,0.7264,0.7297,0.7427,0.75,0.7454,0.7669,0.766,0.7673,0.7617,0.7623,0.7626,0.7607,0.7488,0,0,0,0,0,0.6363,0.6468,0.6612,0.672,0.6772,0.6885,0.6952,0.7007,0.712,0.7166,0.7264,0.7373,0.7486,0.7558,0.7669,0.7805,0.784,0.7858,0.7862,0.7864,0.7875,0.7953,0.7964,0.7854,0.7853,0.7853,0,0,0.6369,0.6476,0.6535,0.671,0.6799,0.6905,0.6922,0.7034,0.7114,0.7183,0.7319,0.7394,0.7523,0.766,0.7725,0.7724,0.7913,0.7871,0.7872,0.7882,0.796,0.797,0.798,0.7857,0.7857,0.7856,0,0,0.6434,0.6524,0.6625,0.6714,0.6848,0.6923,0.6947,0.7092,0.7145,0.7283,0.7337,0.7434,0.7625,0.7715,0.7786,0.7885,0.7921,0.7918,0.7938,0.8014,0.8022,0.803,0.8067,0.8079,0.7928,0.7928,0.7928,0,0.6424,0.6586,0.6672,0.6782,0.6858,0.6925,0.7029,0.711,0.7273,0.7324,0.7321,0.7564,0.7655,0.7815,0.7839,0.7893,0.7925,0.7902,0.8014,0.8023,0.8032,0.8068,0.8082,0.7927,0.7927,0.7927,0.7928,0,0.6568,0.668,0.6745,0.6902,0.6985,0.7091,0.7194,0.7267,0.7315,0.739,0.753,0.7642,0.7777,0.7819,0.7866,0.7986,0.7982,0.7994,0.7988,0.804,0.8076,0.809,0.7926,0.7926,0.7926,0.7927,0,0,0.6601,0.6805,0.6827,0.69,0.7053,0.7141,0.725,0.7383,0.7445,0.7555,0.765,0.7811,0.7824,0.7904,0.7962,0.8028,0.8102,0.8034,0.8038,0.8044,0.8242,0.8232,0.8247,0.8126,0.8129,0.8131,0.8232,0,0.6686,0.6885,0.6966,0.7126,0.7231,0.7297,0.7392,0.7497,0.757,0.767,0.7751,0.7864,0.7873,0.7922,0.799,0.8078,0.8143,0.8072,0.8216,0.822,0.8183,0.8265,0.8255,0.8345,0.8246,0.8249,0.825,0,0.6813,0.6925,0.7096,0.7238,0.7285,0.7369,0.7498,0.7592,0.7712,0.7761,0.7851,0.7905,0.8023,0.8007,0.817,0.812,0.8184,0.8236,0.8241,0.8259,0.8239,0.8287,0.8375,0.8389,0.8273,0.8271,0.827,0,0.6822,0.7015,0.7143,0.7203,0.7371,0.7429,0.7501,0.762,0.7695,0.7807,0.7857,0.7981,0.805,0.8145,0.8232,0.8212,0.8387,0.8378,0.8432,0.843,0.8467,0.8464,0.8568,0.8505,0.8505,0.8505,0.8505,0,0.691,0.7012,0.715,0.7228,0.7345,0.7438,0.7551,0.7628,0.7733,0.7828,0.7891,0.7979,0.8088,0.819,0.8258,0.8384,0.8414,0.8457,0.8474,0.8452,0.8447,0.8496,0.8493,0.8509,0.8508,0.8507,0.8506,0,0.694,0.7036,0.718,0.7328,0.7367,0.7447,0.7573,0.7653,0.7729,0.7848,0.7882,0.8002,0.8125,0.822,0.838,0.8426,0.856,0.8578,0.8519,0.8529,0.8577,0.8572,0.8718,0.8743,0.8661,0.8662,0.8662,0,0.6991,0.7071,0.7228,0.7296,0.7369,0.7478,0.7555,0.7649,0.7727,0.787,0.7932,0.806,0.8168,0.8361,0.8463,0.8586,0.8608,0.8651,0.8627,0.8603,0.861,0.8605,0.8614,0.8654,0.8654,0.8655,0.8655,0,0.7071,0.7115,0.7224,0.735,0.7441,0.7545,0.765,0.7702,0.7815,0.7899,0.8026,0.8109,0.8273,0.84,0.8533,0.8608,0.8651,0.8661,0.8681,0.866,0.8623,0.8645,0.8529,0.8658,0.8658,0.8657,0.8657,0.8657,0.7115,0.719,0.7312,0.7432,0.7521,0.7618,0.77,0.7787,0.7894,0.8036,0.8084,0.8215,0.8334,0.8518,0.8594,0.8698,0.87,0.8727,0.8734,0.874,0.8739,0.8605,0.8722,0.8722,0.8722,0.8722,0.8722,0,0.72,0.7282,0.7391,0.7536,0.7631,0.7663,0.7781,0.7857,0.7972,0.8079,0.8184,0.833,0.8453,0.8564,0.8692,0.8754,0.8777,0.8785,0.8782,0.8799,0.8729,0.87,0.8764,0.8764,0.8764,0.8764,0.8764,0.8764,0.7255,0.7385,0.7443,0.7617,0.7699,0.7828,0.7893,0.7983,0.8069,0.823,0.8333,0.8404,0.8514,0.865,0.8764,0.8794,0.8839,0.8842,0.8876,0.8809,0.8803,0.8798,0.8772,0.885,0.885,0.8938,0.8938,0.8939]}]]